Location: Newark
(32.9533°N, 113.4900°W)
Time: 08:01:45
(UTC+00:00)

OTV 5 (USA 277) - Visible Passes

Search period start: 25 March 2019 00:00
Search period end: 04 April 2019 00:00
Orbit: 315 x 320 km, 54.5° (Epoch: 14 March)

Date Brightness Start Highest point End Pass type
(mag) Time Alt. Az. Time Alt. Az. Time Alt. Az.
29 Mar ? 12:13:12 10° SSE 12:14:50 15° SE 12:16:28 10° E visible
30 Mar ? 12:27:20 15° SSW 12:29:22 54° SE 12:32:01 10° NE visible
31 Mar ? 12:42:07 15° WSW 12:44:03 35° NW 12:46:35 10° NNE visible
01 Apr ? 11:25:51 18° E 11:25:51 18° E 11:26:54 10° ENE visible
01 Apr ? 12:57:31 10° WNW 12:58:54 13° NW 13:00:17 10° N visible
02 Apr ? 11:40:21 28° NNE 11:40:21 28° NNE 11:41:50 10° NE visible
03 Apr ? 11:54:44 18° NNW 11:54:44 18° NNW 11:56:02 10° N visible
